sat.trackr.live / text

‹ back to catalog

QIANFAN-65

NORAD 62795 · 2025-016L

PAYLOAD ACTIVE UNKNOWN

§ Identity

Operator
Country
PRC
Launch date
2025-01-23
Launch site
TAISC
Launch vehicle
Mass (kg)
RCS (m²)

External: N2YO · Heavens-Above · Gunter

§ Orbital elements

Epoch: 2026-09-22T21:50:12.239232Z

Period
106.59 min
Inclination
88.9657°
Eccentricity
0.0012361
Mean motion
13.51023912 rev/d
Perigee alt
1,059.3 km
Apogee alt
1,077.7 km
Semi-major
7,446.6 km
B*
6.5966e-5
RAAN
73.5051°
Arg perigee
238.2083°
Mean anomaly
121.7865°
Rev number
8,561

§ Raw data

QIANFAN-651 62795U 25016L   26265.90986388  .00000055  00000+0  65966-4 0  99902 62795  88.9657  73.5051 0012361 238.2083 121.7865 13.51023912 85611

JSON: /api/v1/satellites/62795 · /tle

For live sub-satellite position, see the globe view (requires WebGL).

§ Visibility from observer

Set your observer location to see the next 7 days of passes ≥ 10°. The values pass through the URL so the page stays shareable.

No JS? Fill the form by hand. The geolocation button needs JavaScript.